North Myrtle Beach, SC

6:46 AM EST on December 07, 2019 (GMT -0500)
Grand Strand

Weather History for KCRE - October, 2019

Change the Weather History Date:

Sunday, October 20, 2019

  Actual Average Record
Temperature  
Mean Temperature 69 °F 64 °F  
Max Temperature 77 °F 74 °F 85 °F (1998)
Min Temperature 61 °F 54 °F 36 °F (1992)
Degree Days  
Heating Degree Days 0 3  
Month to date heating degree days 12 34  
Since 1 July heating degree days 12 38  
Cooling Degree Days 4 2  
Month to date cooling degree days 138 78  
Year to date cooling degree days 2321 1862  
Growing Degree Days 20 (Base 50)    
Moisture  
Dew Point 67 °F    
Average Humidity 86    
Maximum Humidity 94    
Minimum Humidity 78    
Precipitation  
Precipitation 1.85 in 0.13 in 2.22 in (1970)
Month to date precipitation 4.03 2.78  
Year to date precipitation 46.60 44.41  
Sea Level Pressure  
Sea Level Pressure 29.75 in    
Wind  
Wind Speed 11 mph (SW)    
Max Wind Speed 31 mph    
Max Gust Speed 41 mph    
Visibility 10 miles    
Events Rain    
T = Trace of Precipitation, MM = Missing Value Source: NWS Daily Summary

Daily Weather History Graph

Daily Weather History Graph

Search for Another Location

Airport or City:

Astronomy

Oct. 20, 2019 Rise Set
Actual Time 7:23 AM EDT 6:35 PM EDT
Civil Twilight 6:58 AM EDT 7:00 PM EDT
Nautical Twilight 6:29 AM EDT 7:29 PM EDT
Astronomical Twilight 6:00 AM EDT 7:58 PM EDT
Moon 11:53 PM EDT (10/20) 1:38 PM EDT (10/20)
Length of Visible Light 12h 02m
Length of Day
11h 11m
Waning Gibbous, 59% of the Moon is Illuminated
Oct 20
Waning Gibbous
Oct 21
Last Quarter
Oct 27
New
Nov 4
First Quarter
Nov 12
Full

Hourly Weather History & Observations

Time (EDT) Temp. Dew Point Humidity Pressure Visibility Wind Dir Wind Speed Gust Speed Precip Events Conditions
12:53 AM 73.0 °F 71.1 °F 93% 29.79 in 9.0 mi SE 13.8 mph 26.5 mph 0.19 in Rain Heavy Rain
2:42 AM 73.9 °F 73.0 °F 97% 29.69 in 6.0 mi SE 31.1 mph 41.4 mph 0.69 in Rain Heavy Rain
2:53 AM 75.0 °F 73.9 °F 96% 29.69 in 6.0 mi SSW 20.7 mph 34.5 mph 0.92 in Rain Heavy Rain
3:34 AM 75.0 °F 73.0 °F 94% 29.66 in 10.0 mi SSE 19.6 mph 35.7 mph 0.12 in Rain Light Rain
3:46 AM 75.0 °F 73.0 °F 94% 29.66 in 10.0 mi SSE 16.1 mph 32.2 mph 0.14 in Rain Light Rain
3:53 AM 75.9 °F 73.0 °F 91% 29.66 in 10.0 mi South 16.1 mph 23.0 mph 0.14 in Rain Light Rain
4:02 AM 75.9 °F 73.0 °F 91% 29.65 in 10.0 mi South 20.7 mph 27.6 mph 0.00 in Rain Light Rain
4:28 AM 75.0 °F 73.0 °F 94% 29.64 in 10.0 mi SSE 17.3 mph 27.6 mph 0.02 in Rain Light Rain
4:53 AM 75.0 °F 73.0 °F 94% 29.65 in 10.0 mi SSE 16.1 mph 24.2 mph 0.20 in Rain Heavy Rain
5:53 AM 77.0 °F 73.0 °F 88% 29.65 in 10.0 mi SSW 16.1 mph - 0.01 in   Overcast
6:00 AM 77.0 °F 72.0 °F 84% 29.64 in 10.0 mi SSW 17.3 mph - N/A   Overcast
6:08 AM 75.9 °F 72.0 °F 87% 29.64 in 10.0 mi SW 19.6 mph - N/A   Mostly Cloudy
6:53 AM 75.9 °F 72.0 °F 87% 29.65 in 10.0 mi SSW 18.4 mph - N/A   Scattered Clouds
7:53 AM 75.0 °F 71.1 °F 87% 29.66 in 10.0 mi SW 15.0 mph - N/A   Overcast
8:53 AM 75.9 °F 70.0 °F 82% 29.69 in 10.0 mi SW 21.9 mph 31.1 mph N/A   Overcast
9:21 AM 75.0 °F 70.0 °F 84% 29.69 in 10.0 mi SW 19.6 mph 27.6 mph N/A   Overcast
9:53 AM 75.0 °F 71.1 °F 87% 29.70 in 10.0 mi SW 12.7 mph 23.0 mph N/A   Overcast
10:09 AM 75.0 °F 71.1 °F 87% 29.70 in 10.0 mi SW 13.8 mph - N/A   Overcast
10:53 AM 75.0 °F 70.0 °F 84% 29.72 in 10.0 mi WSW 13.8 mph 23.0 mph N/A   Overcast
11:19 AM 75.9 °F 69.1 °F 79% 29.72 in 10.0 mi WSW 12.7 mph 18.4 mph N/A   Overcast
11:28 AM 75.0 °F 69.1 °F 82% 29.72 in 10.0 mi West 10.4 mph - N/A   Overcast
11:37 AM 75.0 °F 69.1 °F 82% 29.72 in 10.0 mi WSW 12.7 mph - N/A   Overcast
11:53 AM 75.0 °F 68.0 °F 79% 29.73 in 10.0 mi West 10.4 mph 19.6 mph N/A   Overcast
12:12 PM 73.9 °F 68.0 °F 82% 29.73 in 10.0 mi WSW 10.4 mph 18.4 mph N/A   Overcast
12:35 PM 73.0 °F 66.9 °F 81% 29.73 in 10.0 mi West 12.7 mph - N/A   Overcast
12:42 PM 73.0 °F 68.0 °F 84% 29.73 in 10.0 mi West 11.5 mph - 0.00 in Rain Light Rain
12:53 PM 73.0 °F 68.0 °F 84% 29.74 in 10.0 mi West 11.5 mph 19.6 mph 0.00 in Rain Light Rain
1:53 PM 70.0 °F 64.9 °F 84% 29.75 in 10.0 mi West 10.4 mph 20.7 mph 0.00 in   Overcast
2:53 PM 68.0 °F 63.0 °F 84% 29.76 in 10.0 mi West 13.8 mph 20.7 mph N/A   Overcast
3:53 PM 66.0 °F 60.1 °F 81% 29.79 in 10.0 mi NW 8.1 mph 20.7 mph N/A   Overcast
4:08 PM 66.0 °F 60.1 °F 81% 29.80 in 10.0 mi WNW 9.2 mph - N/A   Overcast
4:35 PM 64.9 °F 60.1 °F 84% 29.81 in 10.0 mi WNW 12.7 mph 18.4 mph N/A   Overcast
4:46 PM 66.0 °F 60.1 °F 81% 29.81 in 10.0 mi NW 9.2 mph - N/A   Overcast
4:53 PM 64.9 °F 59.0 °F 81% 29.82 in 10.0 mi NW 10.4 mph 18.4 mph N/A   Overcast
5:53 PM 64.9 °F 57.9 °F 78% 29.84 in 10.0 mi NW 10.4 mph 18.4 mph N/A   Overcast
7:53 PM 66.0 °F 59.0 °F 78% 29.89 in 10.0 mi WNW 4.6 mph - N/A   Overcast
8:53 PM 66.0 °F 59.0 °F 78% 29.91 in 10.0 mi NW 4.6 mph - N/A   Mostly Cloudy
9:03 PM 66.0 °F 59.0 °F 78% 29.91 in 10.0 mi Variable 4.6 mph - N/A   Scattered Clouds
9:53 PM 64.0 °F 59.0 °F 84% 29.94 in 10.0 mi Calm Calm - N/A   Clear
10:53 PM 63.0 °F 60.1 °F 90% 29.95 in 10.0 mi Calm Calm - N/A   Clear
11:53 PM 62.1 °F 59.0 °F 90% 29.96 in 10.0 mi Calm Calm - N/A   Clear